KB1WCR Weather Reports


time (UTC)temp
C
wind
direction
speed
KPH
gust
KPH
rain 1hr
cm
rain 24hr
cm
rain mn
cm
humidity
%
barometer
mb
20260903184145 18 257 1.6 1.6 0.00 0.18 0.18 99 1013.6
20260903183644 18 16 3.2 3.2 0.00 0.18 0.18 99 1013.8
20260903183139 17 340 0.0 0.0 0.00 0.18 0.18 99 1013.9
20260903182638 17 311 0.0 0.0 0.00 0.18 0.18 99 1013.9
20260903182134 17 194 0.0 0.0 0.00 0.18 0.18 99 1013.8
20260903181632 17 284 1.6 3.2 0.00 0.18 0.18 99 1014.0
20260903181127 17 311 0.0 1.6 0.00 0.18 0.18 99 1013.8
20260903180622 17 291 0.0 0.0 0.00 0.18 0.18 99 1014.0
20260903180117 17 290 1.6 1.6 0.00 0.18 0.18 99 1014.0
20260903175616 17 18 3.2 3.2 0.00 0.18 0.18 99 1014.0
20260903175115 17 16 1.6 3.2 0.00 0.18 0.18 99 1013.9
20260903174610 17 64 3.2 4.8 0.00 0.18 0.18 99 1013.7
20260903174105 17 323 0.0 0.0 0.00 0.18 0.18 99 1013.9
20260903173559 17 58 3.2 4.8 0.00 0.18 0.18 99 1013.9
20260903173056 17 188 1.6 3.2 0.00 0.18 0.18 99 1013.9
20260903172550 17 170 1.6 1.6 0.00 0.18 0.18 99 1013.8
20260903172046 17 48 1.6 1.6 0.00 0.18 0.18 99 1013.7
20260903171540 17 325 1.6 1.6 0.00 0.18 0.18 99 1013.8
20260903171036 17 7 0.0 1.6 0.00 0.18 0.18 99 1014.0
20260903170534 17 132 1.6 3.2 0.00 0.18 0.18 99 1014.0
20260903170030 17 272 1.6 1.6 0.00 0.18 0.18 99 1014.0
20260903165527 17 357 3.2 3.2 0.00 0.18 0.18 99 1014.0
20260903165023 17 49 1.6 1.6 0.00 0.18 0.18 99 1014.0
20260903164518 17 35 1.6 1.6 0.00 0.18 0.18 99 1014.1
20260903164014 17 26 0.0 0.0 0.00 0.18 0.18 99 1014.2
20260903163509 17 330 1.6 1.6 0.00 0.18 0.18 99 1014.1
20260903163005 17 36 3.2 3.2 0.00 0.18 0.18 99 1014.3
20260903162501 17 51 1.6 3.2 0.00 0.18 0.18 99 1014.4
20260903161956 17 227 1.6 1.6 0.00 0.18 0.18 99 1014.5
20260903161451 16 7 0.0 1.6 0.00 0.18 0.18 99 1014.7
20260903160948 17 2 1.6 1.6 0.00 0.18 0.18 99 1014.6
20260903160446 17 202 3.2 4.8 0.00 0.18 0.18 99 1014.8
20260903155945 16 275 1.6 1.6 0.00 0.18 0.18 99 1014.7
20260903155440 17 155 3.2 4.8 0.00 0.18 0.18 99 1014.6
20260903154935 17 27 1.6 1.6 0.00 0.18 0.18 99 1014.6
20260903154426 17 353 0.0 0.0 0.00 0.18 0.18 99 1015.0
20260903153921 17 151 0.0 1.6 0.00 0.18 0.18 99 1014.9
20260903153416 17 207 1.6 3.2 0.00 0.18 0.18 99 1015.0
20260903152913 17 321 1.6 3.2 0.00 0.18 0.18 99 1015.0
20260903152408 17 266 0.0 0.0 0.00 0.18 0.18 99 1015.2
20260903151903 17 56 1.6 1.6 0.00 0.18 0.18 99 1015.3
20260903151358 17 318 1.6 1.6 0.00 0.18 0.18 99 1015.3
20260903150852 17 39 3.2 3.2 0.00 0.18 0.18 99 1015.4
20260903150346 17 201 3.2 3.2 0.00 0.18 0.18 99 1015.3
20260903145841 16 318 1.6 3.2 0.00 0.18 0.18 99 1015.6
20260903145337 17 29 0.0 1.6 0.00 0.18 0.18 99 1015.4
20260903144836 16 299 0.0 0.0 0.00 0.18 0.18 99 1015.3
20260903144331 16 18 1.6 1.6 0.00 0.18 0.18 99 1015.4
20260903143826 16 143 0.0 0.0 0.00 0.18 0.18 99 1015.4
20260903143323 16 90 1.6 3.2 0.00 0.18 0.18 99 1015.5
20260903142819 16 177 1.6 3.2 0.00 0.18 0.18 99 1015.6
20260903142315 16 306 0.0 0.0 0.00 0.18 0.18 99 1015.6
20260903141810 16 67 1.6 1.6 0.00 0.18 0.18 99 1015.8
20260903141306 16 73 1.6 1.6 0.00 0.18 0.18 99 1015.6
20260903140806 16 304 0.0 0.0 0.00 0.18 0.18 99 1015.7
20260903140300 16 9 1.6 1.6 0.00 0.18 0.18 99 1015.7
20260903135756 16 319 0.0 1.6 0.00 0.18 0.18 99 1016.0
20260903135252 16 23 3.2 3.2 0.00 0.18 0.18 99 1015.8
20260903134750 16 322 0.0 0.0 0.00 0.18 0.18 99 1015.7
20260903134246 16 295 0.0 0.0 0.00 0.18 0.18 99 1015.9
20260903133743 16 23 3.2 3.2 0.00 0.18 0.18 99 1015.8
20260903133240 16 281 1.6 3.2 0.00 0.18 0.18 99 1015.8
20260903132740 16 32 1.6 1.6 0.00 0.18 0.18 99 1015.9
20260903132235 16 325 0.0 0.0 0.00 0.18 0.18 99 1015.8
20260903131730 16 340 0.0 0.0 0.00 0.18 0.18 99 1016.0
20260903131225 16 41 3.2 3.2 0.00 0.18 0.18 99 1015.9
20260903130725 16 252 1.6 3.2 0.00 0.18 0.18 99 1016.0
20260903130221 16 334 0.0 0.0 0.00 0.18 0.18 99 1015.8
20260903125718 16 236 1.6 1.6 0.00 0.18 0.18 99 1016.1
20260903125214 16 304 1.6 1.6 0.00 0.18 0.18 99 1016.2
20260903124713 16 14 3.2 3.2 0.00 0.18 0.18 99 1016.0
20260903124208 16 274 0.0 1.6 0.00 0.18 0.18 99 1016.2
20260903123707 16 326 0.0 0.0 0.13 0.18 0.18 99 1016.1
20260903123206 16 312 0.0 0.0 0.13 0.18 0.18 99 1016.2
20260903122700 16 305 1.6 1.6 0.00 0.15 0.15 99 1016.1
20260903122154 15 301 0.0 0.0 0.00 0.15 0.15 99 1016.5
20260903121654 15 339 0.0 0.0 0.00 0.15 0.15 99 1016.4
20260903121150 15 321 0.0 1.6 0.18 0.15 0.15 99 1016.5
20260903120649 15 321 0.0 0.0 0.30 0.15 0.15 99 1016.6
20260903120143 15 305 0.0 0.0 0.13 0.13 0.13 99 1016.7
20260903115641 15 306 0.0 0.0 0.00 0.10 0.10 99 1016.9
20260903115137 15 306 0.0 0.0 0.00 0.10 0.10 99 1016.9
20260903114632 15 298 0.0 0.0 0.00 0.10 0.10 99 1016.8
20260903114127 15 312 0.0 0.0 0.00 0.10 0.10 99 1016.7
20260903113623 15 321 0.0 0.0 0.00 0.10 0.10 99 1016.8
20260903113119 15 310 0.0 0.0 0.00 0.10 0.10 99 1016.6
20260903112615 15 308 0.0 0.0 0.00 0.10 0.10 99 1016.5
20260903112114 15 305 0.0 0.0 0.00 0.10 0.10 99 1016.4
20260903111614 15 317 0.0 0.0 0.00 0.10 0.10 99 1016.5
20260903111109 15 305 0.0 0.0 0.00 0.10 0.10 99 1016.4
20260903110605 15 324 0.0 0.0 0.00 0.10 0.10 99 1016.5
20260903110100 15 302 0.0 0.0 0.00 0.10 0.10 99 1016.3
20260903105555 15 309 0.0 0.0 0.00 0.10 0.10 99 1016.3
20260903105049 15 310 0.0 0.0 0.00 0.10 0.10 99 1016.4
20260903104544 15 310 0.0 0.0 0.00 0.10 0.10 99 1016.4
20260903104040 15 321 0.0 0.0 0.00 0.10 0.10 99 1016.6
20260903103535 15 323 0.0 0.0 0.00 0.10 0.10 99 1016.5
20260903103032 15 326 0.0 0.0 0.00 0.10 0.10 99 1016.5
20260903102527 15 306 0.0 0.0 0.00 0.10 0.10 99 1016.8
20260903102026 15 305 0.0 0.0 0.00 0.10 0.10 99 1016.8
20260903101520 15 283 0.0 0.0 0.00 0.10 0.10 99 1016.8
20260903101016 16 287 0.0 0.0 0.18 0.10 0.10 99 1016.9
20260903100510 16 308 0.0 0.0 0.18 0.10 0.10 99 1016.9
20260903100009 16 307 0.0 0.0 0.00 0.08 0.08 99 1016.7
20260903095502 16 296 0.0 0.0 0.00 0.08 0.08 99 1016.7
20260903094957 16 309 0.0 0.0 0.00 0.08 0.08 99 1016.7
20260903094457 16 292 0.0 0.0 0.00 0.08 0.08 99 1016.8
20260903093953 16 306 0.0 0.0 0.00 0.08 0.08 99 1016.6
20260903093448 16 333 0.0 0.0 0.00 0.08 0.08 99 1016.8
20260903092943 16 301 0.0 0.0 0.00 0.08 0.08 99 1016.9
20260903092437 16 317 0.0 0.0 0.00 0.08 0.08 99 1017.1
20260903091937 16 345 0.0 0.0 0.13 0.08 0.08 99 1017.3
20260903091435 16 330 0.0 0.0 0.30 0.08 0.08 99 1017.1
20260903090930 16 304 0.0 0.0 0.18 0.05 0.05 99 1017.2
20260903090426 16 307 0.0 0.0 0.18 0.05 0.05 99 1017.4
20260903085924 16 309 0.0 0.0 0.13 0.03 0.03 99 1017.3
20260903085423 16 298 0.0 0.0 0.00 0.00 0.00 99 1017.4
20260903084923 16 313 0.0 0.0 0.00 0.00 0.00 99 1017.3
20260903084421 16 300 0.0 0.0 0.00 0.00 0.00 99 1017.5
20260903083916 16 307 0.0 0.0 0.00 0.00 0.00 99 1017.4
20260903083413 16 306 0.0 0.0 0.00 0.00 0.00 99 1017.2
20260903082911 16 301 0.0 0.0 0.00 0.00 0.00 99 1017.2
20260903082407 16 313 0.0 0.0 0.00 0.00 0.00 99 1017.1
20260903081902 16 310 0.0 0.0 0.00 0.00 0.00 99 1017.0
20260903081357 16 308 0.0 0.0 0.00 0.00 0.00 99 1016.9
20260903080853 16 301 0.0 0.0 0.00 0.00 0.00 99 1017.0
20260903080350 16 312 0.0 0.0 0.00 0.00 0.00 99 1016.9
20260903075849 16 306 0.0 0.0 0.00 0.00 0.00 99 1017.1
20260903075345 16 312 0.0 0.0 0.00 0.00 0.00 99 1017.0
20260903074839 16 315 0.0 0.0 0.00 0.00 0.00 99 1017.2
20260903074333 16 312 0.0 0.0 0.00 0.00 0.00 99 1017.3
20260903073829 16 310 0.0 0.0 0.00 0.00 0.00 99 1017.4
20260903073324 16 305 0.0 0.0 0.00 0.00 0.00 99 1017.3
20260903072820 16 328 0.0 0.0 0.00 0.00 0.00 99 1017.3
20260903072316 16 7 1.6 3.2 0.00 0.00 0.00 99 1017.3
20260903071812 16 307 0.0 0.0 0.00 0.00 0.00 99 1017.4
20260903071308 16 313 0.0 0.0 0.00 0.00 0.00 99 1017.5
20260903070802 16 8 0.0 1.6 0.00 0.00 0.00 99 1017.7
20260903070258 16 6 0.0 1.6 0.00 0.00 0.00 99 1017.7
20260903065753 16 311 0.0 0.0 0.00 0.00 0.00 99 1018.0
20260903065252 16 324 0.0 0.0 0.00 0.00 0.00 99 1018.1
20260903064751 16 311 0.0 0.0 0.00 0.00 0.00 99 1018.3
20260903064247 16 342 0.0 0.0 0.00 0.00 0.00 99 1018.4
20260903063743 16 317 0.0 0.0 0.00 0.00 0.00 99 1018.4
20260903063237 16 299 0.0 0.0 0.00 0.00 0.00 99 1018.6
20260903062733 16 297 0.0 0.0 0.00 0.00 0.00 99 1018.5
20260903062227 16 296 0.0 0.0 0.00 0.00 0.00 99 1018.7
20260903061724 16 313 0.0 0.0 0.00 0.00 0.00 99 1018.6
20260903061222 16 318 0.0 0.0 0.00 0.00 0.00 99 1018.8
20260903060717 16 306 0.0 0.0 0.00 0.00 0.00 99 1018.8
20260903060212 16 308 0.0 0.0 0.00 0.00 0.00 99 1018.8
20260903055709 16 327 0.0 0.0 0.00 0.00 0.00 99 1018.9
20260903055208 15 303 0.0 0.0 0.00 0.00 0.00 99 1019.2
20260903054703 15 308 0.0 0.0 0.00 0.00 0.00 99 1019.2
20260903054159 15 302 0.0 0.0 0.00 0.00 0.00 99 1019.1
20260903053655 15 314 0.0 0.0 0.00 0.00 0.00 99 1019.1
20260903053150 15 300 0.0 0.0 0.00 0.00 0.00 99 1019.2
20260903052646 15 306 0.0 0.0 0.00 0.00 0.00 99 1019.0
20260903052141 15 315 0.0 0.0 0.00 0.00 0.00 99 1019.3
20260903051636 15 314 0.0 0.0 0.00 0.00 0.00 99 1019.3
20260903051131 15 310 0.0 0.0 0.00 0.00 0.00 99 1019.2
20260903050626 15 314 0.0 0.0 0.00 0.00 0.00 99 1019.3
20260903050121 15 310 0.0 0.0 0.00 0.00 0.00 99 1019.2
20260903045620 15 304 0.0 0.0 0.00 0.00 0.00 99 1019.4
20260903045117 15 314 0.0 0.0 0.00 0.00 0.00 99 1019.4
20260903044612 15 318 0.0 0.0 0.00 0.00 0.00 99 1019.4
20260903044108 15 301 0.0 0.0 0.00 0.00 0.00 99 1019.4
20260903043604 15 300 0.0 0.0 0.00 0.00 0.00 99 1019.5
20260903043103 15 300 0.0 0.0 0.00 0.00 0.00 99 1019.5
20260903042558 15 349 0.0 1.6 0.00 0.00 0.00 99 1019.5
20260903042053 15 313 0.0 0.0 0.00 0.00 0.00 99 1019.6
20260903041550 15 316 0.0 0.0 0.00 0.00 0.00 99 1019.9
20260903041045 15 316 0.0 0.0 0.00 0.00 0.00 99 1020.0
20260903040543 15 312 0.0 0.0 0.00 0.00 0.00 99 1020.1
20260903040040 15 304 0.0 0.0 0.00 0.00 0.00 99 1020.1
20260903035535 15 305 0.0 0.0 0.00 0.00 0.00 99 1020.2
20260903035031 15 299 0.0 0.0 0.00 0.00 0.00 99 1020.2
20260903034526 15 310 0.0 0.0 0.00 0.00 0.00 99 1020.2
20260903034021 15 321 0.0 0.0 0.00 0.00 0.00 99 1020.2
20260903033515 15 304 0.0 0.0 0.00 0.00 0.00 99 1020.3
20260903033011 15 304 0.0 0.0 0.00 0.00 0.00 99 1020.6
20260903032506 15 307 0.0 0.0 0.00 0.00 0.00 99 1020.3
20260903032000 15 306 0.0 0.0 0.00 0.00 0.00 99 1020.3
20260903031455 15 307 0.0 0.0 0.00 0.00 0.00 99 1020.4
20260903030950 15 320 0.0 0.0 0.00 0.00 0.00 99 1020.4
20260903030446 15 302 0.0 0.0 0.00 0.00 0.00 99 1020.7
20260903025941 15 309 0.0 0.0 0.00 0.00 0.00 99 1020.4
20260903025431 15 300 0.0 0.0 0.00 0.00 0.00 99 1020.4
20260903024926 15 342 0.0 0.0 0.00 0.00 0.00 99 1020.2
20260903024420 15 312 0.0 0.0 0.00 0.00 0.00 99 1020.4
20260903023915 15 312 0.0 0.0 0.00 0.00 0.00 99 1020.5
20260903023411 15 343 0.0 0.0 0.00 0.00 0.00 99 1020.6
20260903022907 15 327 0.0 0.0 0.00 0.00 0.00 99 1020.7
20260903022405 15 311 0.0 0.0 0.00 0.00 0.00 99 1020.7
20260903021904 15 310 0.0 0.0 0.00 0.00 0.00 99 1020.7
20260903021359 15 306 0.0 0.0 0.00 0.00 0.00 99 1020.9
20260903020859 15 341 0.0 0.0 0.00 0.00 0.00 99 1020.8
20260903020355 15 296 0.0 0.0 0.00 0.00 0.00 99 1020.9
20260903015849 15 305 0.0 0.0 0.00 0.00 0.00 99 1021.0
20260903015344 15 302 0.0 0.0 0.00 0.00 0.00 99 1020.8
20260903014839 15 288 0.0 0.0 0.00 0.00 0.00 99 1020.8
20260903014334 15 50 0.0 0.0 0.00 0.00 0.00 99 1020.8
20260903013829 15 299 0.0 0.0 0.00 0.00 0.00 99 1020.8
20260903013328 15 283 0.0 0.0 0.00 0.00 0.00 99 1020.8
20260903012828 15 303 0.0 0.0 0.00 0.00 0.00 99 1020.9
20260903012321 15 302 0.0 0.0 0.00 0.00 0.00 99 1020.9
20260903011820 15 281 0.0 0.0 0.00 0.00 0.00 99 1020.8
20260903011315 15 333 0.0 0.0 0.00 0.00 0.00 99 1020.8
20260903010810 15 306 0.0 0.0 0.00 0.00 0.00 99 1020.9
20260903010306 15 75 1.6 3.2 0.00 0.00 0.00 99 1020.8
20260903005804 15 309 0.0 0.0 0.00 0.00 0.00 99 1020.7
20260903005259 15 276 0.0 0.0 0.00 0.00 0.00 99 1020.6
20260903004755 15 17 1.6 1.6 0.00 0.00 0.00 99 1020.5
20260903004250 15 303 0.0 1.6 0.00 0.00 0.00 99 1020.5
20260903003746 15 311 0.0 0.0 0.00 0.00 0.00 99 1020.5
20260903003240 15 301 0.0 0.0 0.00 0.00 0.00 99 1020.6
20260903002735 15 333 0.0 0.0 0.00 0.00 0.00 99 1020.7
20260903002229 15 336 0.0 0.0 0.00 0.00 0.00 99 1020.6
20260903001725 15 342 0.0 0.0 0.00 0.00 0.00 99 1020.6
20260903001225 15 287 0.0 0.0 0.00 0.00 0.00 99 1020.5
20260903000720 15 303 0.0 0.0 0.00 0.00 0.00 99 1020.6
20260903000219 15 240 1.6 1.6 0.00 0.00 0.00 99 1020.8
20260902235718 15 315 0.0 0.0 0.00 0.00 0.00 98 1020.9
20260902235214 15 280 0.0 0.0 0.00 0.00 0.00 98 1021.0
20260902234713 15 2 1.6 1.6 0.00 0.00 0.00 98 1021.0
20260902234212 15 323 1.6 1.6 0.00 0.00 0.00 97 1020.9
20260902233706 16 311 0.0 0.0 0.00 0.00 0.00 97 1021.1
20260902233201 16 287 0.0 0.0 0.00 0.00 0.00 97 1021.3
20260902232700 16 315 0.0 0.0 0.00 0.00 0.00 97 1021.3
20260902232159 16 339 0.0 0.0 0.00 0.00 0.00 96 1021.4
20260902231653 16 324 0.0 0.0 0.00 0.00 0.00 96 1021.4
20260902231148 16 290 0.0 0.0 0.00 0.00 0.00 96 1021.5
20260902230644 16 315 0.0 0.0 0.00 0.00 0.00 95 1021.5
20260902230143 16 304 0.0 0.0 0.00 0.00 0.00 95 1021.5
20260902225638 16 331 0.0 0.0 0.00 0.00 0.00 94 1021.4
20260902225137 16 317 0.0 0.0 0.00 0.00 0.00 94 1021.4
20260902224636 16 330 0.0 0.0 0.00 0.00 0.00 94 1021.4
20260902224132 16 350 0.0 0.0 0.00 0.00 0.00 93 1021.7
20260902223628 16 3 1.6 3.2 0.00 0.00 0.00 93 1021.7
20260902223127 17 356 1.6 1.6 0.00 0.00 0.00 92 1021.8
20260902222626 17 303 0.0 0.0 0.00 0.00 0.00 92 1022.0
20260902222125 17 336 0.0 0.0 0.00 0.00 0.00 91 1021.9
20260902221619 17 287 0.0 0.0 0.00 0.00 0.00 91 1021.7
20260902221114 17 262 0.0 0.0 0.00 0.00 0.00 90 1021.7
20260902220610 17 289 1.6 1.6 0.00 0.00 0.00 90 1021.6
20260902220104 17 322 0.0 0.0 0.00 0.00 0.00 90 1021.7
20260902215601 17 351 0.0 0.0 0.00 0.00 0.00 90 1021.8
20260902215055 17 284 1.6 1.6 0.00 0.00 0.00 89 1021.7
20260902214550 17 12 3.2 4.8 0.00 0.00 0.00 88 1021.8
20260902214049 17 330 0.0 0.0 0.00 0.00 0.00 88 1021.8
20260902213545 17 15 1.6 3.2 0.00 0.00 0.00 88 1022.0
20260902213044 17 43 1.6 1.6 0.00 0.00 0.00 88 1021.9
20260902212539 17 330 3.2 4.8 0.00 0.00 0.00 87 1021.7
20260902212030 18 89 1.6 1.6 0.00 0.00 0.00 86 1022.0
20260902211526 18 326 0.0 1.6 0.00 0.00 0.00 87 1021.9
20260902211020 18 348 0.0 1.6 0.00 0.00 0.00 86 1021.8
20260902210514 18 317 0.0 0.0 0.00 0.00 0.00 85 1021.8
20260902210013 18 349 1.6 1.6 0.00 0.00 0.00 85 1021.7
20260902205508 17 11 1.6 1.6 0.00 0.00 0.00 85 1021.8
20260902205003 18 251 3.2 3.2 0.00 0.00 0.00 85 1022.2
20260902204502 18 330 1.6 3.2 0.00 0.00 0.00 85 1022.3
20260902203958 18 212 1.6 1.6 0.00 0.00 0.00 84 1022.2
20260902203454 18 240 3.2 3.2 0.00 0.00 0.00 83 1022.4
20260902202952 18 299 0.0 0.0 0.00 0.00 0.00 84 1022.3
20260902202448 18 3 4.8 6.4 0.00 0.00 0.00 84 1022.2
20260902201945 18 327 1.6 1.6 0.00 0.00 0.00 83 1022.1
20260902201440 18 284 1.6 1.6 0.00 0.00 0.00 83 1022.3
20260902200940 18 187 0.0 1.6 0.00 0.00 0.00 84 1022.3
20260902200435 18 304 3.2 3.2 0.00 0.00 0.00 83 1022.2
20260902195930 18 339 0.0 1.6 0.00 0.00 0.00 83 1022.1
20260902195426 18 326 6.4 9.7 0.00 0.00 0.00 82 1022.5
20260902194920 18 263 1.6 3.2 0.00 0.00 0.00 83 1022.7
20260902194419 18 7 1.6 1.6 0.00 0.00 0.00 83 1022.5
20260902193915 18 57 4.8 6.4 0.00 0.00 0.00 82 1022.7
20260902193411 18 48 6.4 9.7 0.00 0.00 0.00 81 1022.9
20260902192909 18 318 0.0 1.6 0.00 0.00 0.00 83 1022.8
20260902192409 18 11 3.2 4.8 0.00 0.00 0.00 83 1022.8
20260902191908 18 259 1.6 3.2 0.00 0.00 0.00 82 1022.7
20260902191404 18 205 1.6 3.2 0.00 0.00 0.00 83 1022.8
20260902190858 18 60 4.8 4.8 0.00 0.00 0.00 83 1022.8
20260902190353 18 68 1.6 3.2 0.00 0.00 0.00 83 1022.8
20260902185849 18 352 3.2 3.2 0.00 0.00 0.00 83 1022.8
20260902185345 18 8 4.8 9.7 0.00 0.00 0.00 82 1023.1
20260902184840 18 95 1.6 1.6 0.00 0.00 0.00 83 1022.9